{"data":{"norad_id":64042,"intl_designator":"2025-102W","name":"STARLINK-34049","alt_names":[],"object_type":"PAYLOAD","status":"ACTIVE","operator":null,"country":"US","launch_date":"2025-05-16","launch_site_code":"AFWTR","launch_vehicle":null,"mission":null,"orbit_class":"UNKNOWN","rcs_meters":null,"size_class":null,"mass_kg":null,"dimensions":null,"purposes":["comms"],"wikipedia_slug":null,"has_3d_model":false,"image_url":null,"decayed_at":null,"tle_current":{"epoch":"2026-09-20T13:52:01.381728Z","epoch_age_seconds":136918,"freshness":"FRESH","line1":"1 64042U 25102W   26263.57779377  .00007263  00000+0  25679-3 0  9996","line2":"2 64042  70.0007 340.7167 0003425 271.8503  88.2279 15.29585559 75204","mean_motion":15.29585559,"eccentricity":0.0003425,"inclination_deg":70.0007,"raan_deg":340.7167,"arg_perigee_deg":271.8503,"mean_anomaly_deg":88.2279,"bstar":0.00025679,"rev_number":7520,"period_min":94.143148222544,"perigee_km":474.70239195833,"apogee_km":479.39819525445,"semimajor_km":6855.1872936064,"source":"CELESTRAK","updated_at":"2026-09-21T09:00:35.190112Z"}}}